Flag for Nepal Weather past 2 weeks in Kathmandu, Nepal

Now
82 °F

Scattered clouds.


Feels Like: 86 °F
Forecast: 62 / 80 °F
Wind: 8 mph from Southwest

Location: Kathmandu Airport

Current Time: Aug 30, 2015 at 4:16:26 PM

Latest Report: Aug 30, 2015 at 3:35 PM


Visibility: N/A

Pressure: 29.80 "Hg (25.70 "Hg at 1305m altitude)

Humidity: 66%

Dew point: 70 °F

Historic Weather in Kathmandu — Graph

°F

Kathmandu temperature yesterday

Maximum temperature yesterday: 84 °F (at 2:35 PM)
Minimum temperature yesterday: 70 °F (at 3:35 AM)
Average temperature yesterday: 75 °F

Past Weeks' High & Low Weather Summary

 TemperatureHumidityPressure
High86 °F (Aug 30, 2:35 PM)100% (Aug 16, 11:35 PM)29.98 "Hg (Aug 16, 11:35 PM)
Low66 °F (Aug 20, 11:35 PM)58% (Aug 16, 12:35 PM)29.77 "Hg (Aug 20, 3:35 PM)
Average74 °F86%29.86 "Hg
* Reported Aug 15 2:35 PM — Aug 30 2:35 PM, Kathmandu, Weather by CustomWeather, © 2015

Note: Actual official high and low records may vary slightly from our data, if they occured in-between our weather recording intervals... More about our weather records

Advertising

Kathmandu weather history for previous 24 hours

 ConditionsComfort  
Time TempWeatherWind HumidityBarometerVisibility
2:35 PM
Sun, Aug 30
86 °FScattered clouds.6 mph59%29.80 "HgN/A
1:35 PM82 °FScattered clouds.5 mph66%29.83 "HgN/A
12:35 PM81 °FBroken clouds.7 mph66%29.86 "HgN/A
11:35 AM82 °FScattered clouds.5 mph62%29.86 "HgN/A
10:35 AM79 °FBroken clouds.5 mph74%29.89 "Hg5 mi
9:35 AM77 °FBroken clouds.3 mph74%29.89 "Hg4 mi
8:35 AM73 °FLight rain. Broken clouds.No wind83%29.89 "Hg4 mi
7:35 AM73 °FBroken clouds.2 mph83%29.86 "Hg4 mi
6:35 AM72 °FBroken clouds.2 mph94%29.86 "Hg4 mi
5:35 AM72 °FPartly cloudy.No wind94%29.83 "Hg4 mi
4:35 AM72 °FPartly cloudy.No wind94%29.83 "Hg4 mi
3:35 AM72 °FPartly cloudy.5 mph94%29.83 "Hg4 mi
1:35 AM72 °FThunderstorms. Partly cloudy.3 mph94%29.86 "Hg4 mi
12:35 AM72 °FThundershowers. Passing clouds.3 mph88%29.86 "Hg5 mi
11:35 PM
Sat, Aug 29
73 °FThunderstorms. Partly cloudy.5 mph83%29.89 "Hg5 mi
10:35 PM73 °FThundershowers. Partly cloudy.8 mph83%29.89 "Hg5 mi
9:35 PM73 °FPartly cloudy.5 mph89%29.89 "Hg5 mi
8:35 PM73 °FPassing clouds.6 mph89%29.86 "HgN/A
7:35 PM73 °FPassing clouds.7 mph89%29.83 "HgN/A
6:35 PM75 °FPassing clouds.5 mph83%29.80 "HgN/A
5:35 PM79 °FPassing clouds.7 mph74%29.77 "HgN/A
4:35 PM82 °FScattered clouds.6 mph70%29.77 "HgN/A
Weather by CustomWeather, © 2015

See weather overviewHow to use our weather pages